sat.trackr.live / text

‹ back to catalog

STARLINK-5402

NORAD 54869 · 2022-177BB

PAYLOAD ACTIVE UNKNOWN

§ Identity

Operator
Country
US
Launch date
2022-12-28
Launch site
AFETR
Launch vehicle
Mass (kg)
RCS (m²)

Purposes: comms

External: N2YO · Heavens-Above · Gunter

§ Orbital elements

Epoch: 2026-05-25T02:45:00.067968Z

Period
94.27 min
Inclination
43.0061°
Eccentricity
0.0001296
Mean motion
15.27572741 rev/d
Perigee alt
482.2 km
Apogee alt
484.0 km
Semi-major
6,861.2 km
B*
1.2872e-5
RAAN
50.4111°
Arg perigee
268.2368°
Mean anomaly
91.8336°
Rev number
18,877

§ Raw data

STARLINK-54021 54869U 22177BB  26145.11458412  .00000092  00000+0  12872-4 0  99992 54869  43.0061  50.4111 0001296 268.2368  91.8336 15.27572741188775

JSON: /api/v1/satellites/54869 · /tle

For live sub-satellite position, see the globe view (requires WebGL).

§ Visibility from observer

Set your observer location to see the next 7 days of passes ≥ 10°. The values pass through the URL so the page stays shareable.

No JS? Fill the form by hand. The geolocation button needs JavaScript.